Vertical_Velocity
-1 -1 -1 -3 -1 -1 -0 -1 -0 -2 -9 -2 -4 -9 -4 1 3 4 2 -2 -2 1 -1 -0 -2 -4 -0 -1 -2 -2 -1 -1 -2 -1 -2 -2 1 4
-4 -1 -1 -3 -1 -2 -1 -1 -0 0 1 -1 -6 -4 -5 -10 -10 -10 -9 -8 -6 -2 -4 0 -2 -1 -0 -1 -0 -3 -4 -3 -5 -1 1 4 3 2
-1 -3 -1 -2 -1 -0 -2 -2 0 0 0 -7 -0 -1 -3 -3 -5 -5 -4 -4 -5 -5 -5 -1 -1 -4 -1 -5 -1 -5 -6 -2 -4 -1 -1 -4 -3 -1
-2 -1 -2 -2 -3 -0 -2 -0 -1 1 2 -1 -3 -2 -0 0 0 -1 -3 -3 -1 0 -2 -1 4 1 -2 -2 -4 -2 1 0 -0 -2 -2 -2 -7 2
1 -2 -0 -2 0 -1 -0 -0 0 -0 1 1 -4 0 -2 3 -8 -4 -3 -0 -4 -3 -7 -2 3 0 -0 -1 0 -0 -3 -2 -4 -1 0 -0 -3 -5
-2 1 -1 -2 -1 -0 -3 -0 -2 -1 1 -2 -3 -2 0 -8 2 -1 -4 0 -5 -6 -1 -3 -4 -3 -3 -0 3 -1 1 -0 0 -1 -1 -1 1 0
0 -1 -0 -0 -1 -3 -1 -2 -0 -0 -2 0 -3 -5 -4 -2 1 -3 -6 -4 -2 -5 -6 -0 -12 -7 -0 -1 -0 -0 2 -1 -1 -2 -2 -3 -4 -3
-1 -1 -1 -1 -1 -1 -0 -1 -1 1 -1 -1 -5 -3 -2 -0 -2 -0 -3 -2 -11 2 -5 -9 -5 -3 -6 -6 -1 -2 -1 -1 -1 -0 1 1 1 -1
0 -1 -0 -2 -2 -4 -3 -2 -0 1 0 2 0 -0 3 0 -0 -4 -1 -1 -2 -5 0 -4 -2 -3 1 0 -2 -4 -2 -0 -1 -1 -1 -1 -1 -0
-1 -1 -2 0 -0 1 -4 2 -1 -3 -2 -2 -0 1 1 -1 1 4 2 1 -5 -4 2 -2 -2 -2 2 -9 -8 -4 -2 1 0 4 3 -2 -1 2
1 0 -2 -3 -1 -1 5 -3 -7 -3 2 1 -2 -4 -7 -2 4 -1 -2 -1 -8 -6 -5 4 -1 -8 -0 -10 -3 11 4 -2 -0 -1 -1 0 1 -2
-3 -4 -4 1 2 1 -4 -3 -1 1 -2 1 -2 -2 -0 1 3 3 -0 -1 -0 -8 -5 6 -1 5 -11 -18 13 0 -6 3 4 -0 1 1 1 -0
-3 -1 1 -0 -3 -6 -0 1 1 2 -2 -3 -2 -2 -1 3 -3 -1 -0 2 -1 -5 2 13 -4 -2 8 -5 -3 -4 -4 -6 3 -5 0 1 -0 3
-1 -1 -1 -1 -4 1 1 -2 -1 -1 -3 1 -1 -3 -5 -4 -4 -3 -2 -1 3 0 -5 5 2 7 4 -0 -3 -5 -6 -2 4 -1 -3 -1 -2 -3
-2 -2 -3 -2 -2 -1 -4 1 4 3 2 2 -4 -6 -2 -4 -3 2 3 5 -3 -2 3 5 5 0 4 -1 1 -7 -1 -4 -3 -1 -3 -2 -3 0
-3 -1 -4 -4 -2 -3 -1 2 -1 -3 -6 2 -4 -4 -4 -3 -2 5 -1 -2 -2 -7 2 4 3 5 -2 1 6 -3 -1 4 -4 -4 5 2 3 0
-0 -1 -3 2 -1 0 -1 -3 -2 -1 -3 -2 -1 -2 -0 -2 -3 2 4 0 0 -5 -12 -7 3 6 2 4 -3 -0 -2 -0 2 -4 2 -5 -1 1
-6 -3 2 -1 -3 -3 -3 -9 -4 -2 -1 -3 -2 4 -4 -1 1 -0 5 1 -2 -4 -4 -2 -5 -10 -3 -8 10 1 -1 3 1 -2 4 2 -8 3
1 1 -4 -3 -1 -6 0 -4 -4 -3 -6 1 3 -2 -1 2 5 -1 -2 0 -5 -1 -2 2 -1 4 0 -2 -7 11 3 -3 -0 3 4 1 -4 -5
-1 0 -6 -2 -0 -5 -5 -6 -0 -7 4 5 -1 0 2 4 -3 -4 -2 1 -2 -3 -5 1 2 5 10 4 -2 -18 10 2 2 -2 -2 3 -6 -3
-5 -4 -0 -4 -4 -2 -1 2 0 2 1 -3 2 3 2 1 -6 2 -1 3 4 -1 -3 -4 5 6 2 0 -2 -6 -5 7 7 2 -2 3 -3 -3
-3 1 -3 -3 1 4 1 -1 -0 -1 0 3 1 1 0 1 -3 -3 1 -2 -2 2 -2 -2 -1 -2 0 6 -1 -3 -7 -6 4 3 1 0 10 0
4 -2 2 -1 0 -4 -1 -1 2 0 1 0 -0 -1 0 -4 3 2 -1 -1 3 1 4 -8 -4 3 4 6 4 -3 -3 -3 -3 -4 -5 2 2 -3
Height
1560 1559 1558 1557 1556 1554 1552 1552 1550 1548 1544 1541 1537 1534 1530 1525 1521 1516 1512 1509 1506 1502 1498 1495 1493 1491 1489 1487 1485 1483 1481 1478 1476 1474 1473 1473 1472 1472
1557 1556 1554 1554 1553 1551 1549 1549 1547 1546 1542 1539 1535 1530 1526 1521 1517 1513 1509 1505 1501 1497 1494 1491 1486 1483 1482 1481 1479 1476 1475 1472 1471 1469 1468 1466 1466 1465
1554 1553 1551 1550 1550 1548 1546 1545 1543 1541 1538 1534 1530 1526 1521 1517 1513 1509 1506 1501 1497 1492 1487 1484 1480 1476 1473 1473 1471 1469 1468 1466 1465 1463 1461 1459 1458 1457
1550 1549 1548 1546 1546 1544 1542 1540 1538 1536 1533 1529 1526 1522 1517 1513 1510 1507 1503 1498 1494 1488 1482 1478 1476 1472 1469 1467 1465 1463 1461 1459 1458 1455 1453 1451 1450 1450
1547 1545 1544 1542 1541 1539 1538 1536 1533 1531 1529 1525 1521 1517 1513 1510 1505 1502 1499 1493 1489 1483 1478 1472 1466 1463 1462 1460 1457 1455 1454 1453 1450 1449 1446 1444 1443 1442
1543 1541 1540 1538 1537 1535 1535 1533 1531 1528 1526 1522 1518 1513 1509 1504 1501 1496 1491 1488 1483 1479 1473 1467 1463 1459 1456 1454 1451 1449 1446 1446 1444 1442 1440 1438 1436 1435
1540 1538 1536 1534 1532 1531 1531 1529 1526 1524 1521 1518 1514 1511 1506 1502 1497 1491 1484 1479 1475 1472 1467 1464 1459 1455 1451 1447 1445 1442 1440 1438 1436 1435 1434 1432 1430 1429
1536 1534 1532 1531 1529 1528 1527 1524 1522 1521 1518 1514 1510 1508 1504 1499 1493 1488 1481 1474 1465 1466 1459 1454 1453 1449 1445 1441 1439 1436 1434 1432 1430 1429 1427 1425 1423 1421
1531 1530 1528 1527 1525 1523 1522 1520 1519 1516 1513 1511 1508 1505 1500 1495 1491 1486 1480 1476 1468 1461 1456 1448 1448 1443 1441 1437 1434 1431 1429 1426 1423 1421 1419 1417 1415 1414
1528 1526 1526 1524 1523 1519 1518 1515 1513 1511 1508 1505 1503 1499 1495 1491 1488 1479 1474 1466 1462 1457 1453 1444 1441 1438 1435 1430 1427 1425 1423 1420 1418 1416 1413 1411 1409 1407
1525 1524 1523 1521 1518 1517 1514 1510 1509 1507 1504 1498 1495 1491 1487 1485 1482 1475 1470 1465 1455 1452 1449 1444 1438 1432 1428 1422 1420 1420 1418 1415 1412 1409 1406 1403 1401 1400
1522 1522 1521 1519 1515 1513 1511 1509 1505 1501 1497 1492 1489 1486 1482 1479 1477 1472 1466 1460 1456 1447 1447 1443 1434 1430 1419 1416 1415 1414 1410 1408 1405 1402 1398 1396 1394 1392
1520 1519 1517 1514 1510 1509 1507 1505 1501 1497 1492 1489 1485 1482 1479 1474 1469 1468 1464 1459 1452 1446 1441 1438 1429 1424 1420 1411 1408 1406 1403 1399 1397 1394 1391 1388 1387 1386
1517 1515 1513 1510 1506 1505 1501 1498 1494 1488 1486 1485 1482 1477 1474 1469 1464 1462 1458 1454 1449 1442 1435 1431 1424 1420 1413 1406 1400 1398 1395 1392 1390 1387 1384 1382 1380 1378
1513 1513 1510 1507 1505 1501 1497 1496 1490 1487 1484 1477 1472 1474 1469 1464 1461 1456 1452 1446 1442 1436 1430 1425 1419 1414 1409 1401 1394 1390 1387 1385 1382 1380 1378 1376 1374 1374
1510 1507 1505 1504 1500 1496 1494 1490 1485 1483 1481 1478 1472 1469 1466 1461 1457 1451 1445 1439 1434 1427 1423 1419 1413 1408 1401 1396 1390 1383 1381 1378 1376 1374 1372 1370 1369 1368
1507 1505 1503 1501 1497 1495 1491 1488 1486 1481 1475 1474 1471 1466 1461 1458 1452 1446 1440 1434 1429 1421 1415 1411 1407 1401 1395 1389 1383 1378 1373 1370 1369 1367 1365 1363 1362 1361
1503 1503 1500 1496 1494 1492 1488 1485 1484 1477 1474 1471 1467 1462 1457 1454 1447 1440 1435 1429 1423 1417 1411 1406 1399 1392 1386 1382 1380 1373 1369 1365 1363 1361 1360 1358 1355 1354
1503 1499 1496 1496 1492 1489 1486 1480 1480 1476 1473 1469 1462 1456 1454 1449 1442 1435 1430 1425 1419 1413 1407 1402 1395 1389 1381 1374 1371 1370 1364 1360 1358 1355 1354 1352 1349 1347
1499 1498 1495 1494 1487 1487 1484 1478 1477 1472 1470 1462 1458 1453 1449 1444 1437 1432 1426 1421 1414 1408 1401 1395 1390 1385 1379 1371 1362 1357 1357 1353 1351 1348 1347 1345 1343 1341
1496 1496 1494 1490 1490 1483 1480 1477 1472 1469 1463 1459 1454 1448 1444 1439 1433 1428 1422 1416 1411 1404 1396 1389 1384 1378 1372 1365 1358 1352 1349 1347 1345 1342 1340 1338 1336 1335
1497 1495 1490 1484 1489 1480 1477 1473 1468 1464 1459 1454 1449 1444 1440 1435 1429 1423 1417 1411 1404 1399 1391 1383 1377 1371 1366 1361 1354 1347 1341 1338 1336 1334 1332 1331 1331 1328
1494 1490 1488 1485 1483 1478 1474 1469 1465 1460 1455 1450 1445 1440 1435 1429 1424 1418 1412 1406 1400 1393 1386 1378 1372 1367 1361 1357 1350 1342 1336 1332 1329 1326 1324 1323 1322 1321